TimeEST,TemperatureF,Dew PointF,Humidity,Sea Level PressureIn,VisibilityMPH,Wind Direction,Wind SpeedMPH,Gust SpeedMPH,PrecipitationIn,Events,Conditions,WindDirDegrees,DateUTC
12:54 AM,12.0,3.9,70,30.51,10.0,South,4.6,-,N/A,,Clear,170,2013-01-25 05:54:00
1:54 AM,12.0,3.9,70,30.49,10.0,Calm,Calm,-,N/A,,Clear,0,2013-01-25 06:54:00
2:54 AM,12.9,3.9,67,30.48,10.0,SE,3.5,-,N/A,,Clear,140,2013-01-25 07:54:00
3:54 AM,12.9,5.0,71,30.45,10.0,SSE,3.5,-,N/A,,Mostly Cloudy,160,2013-01-25 08:54:00
4:54 AM,12.9,5.0,71,30.43,10.0,SSE,4.6,-,N/A,,Overcast,160,2013-01-25 09:54:00
5:54 AM,12.9,3.9,67,30.37,10.0,SE,3.5,-,N/A,,Overcast,140,2013-01-25 10:54:00
6:54 AM,14.0,3.9,64,30.32,10.0,ESE,3.5,-,N/A,,Overcast,110,2013-01-25 11:54:00
7:54 AM,14.0,3.9,64,30.27,10.0,ESE,6.9,-,0.00,,Overcast,110,2013-01-25 12:54:00
8:54 AM,14.0,3.9,64,30.29,10.0,Variable,3.5,-,N/A,,Overcast,0,2013-01-25 13:54:00
9:54 AM,14.0,3.9,64,30.26,6.0,Variable,5.8,-,N/A,,Haze,0,2013-01-25 14:54:00
10:01 AM,14.0,5.0,67,30.19,2.0,Variable,5.8,-,0.00,Snow,Light Snow,0,2013-01-25 15:01:00
10:08 AM,12.2,6.8,79,30.19,0.8,SE,5.8,-,0.00,Snow,Light Snow,140,2013-01-25 15:08:00
10:26 AM,12.2,8.6,85,30.17,0.5,Variable,3.5,-,0.00,Fog-Snow,Light Snow,0,2013-01-25 15:26:00
10:41 AM,12.2,8.6,85,30.16,0.2,ESE,5.8,-,0.00,Fog-Snow,Snow,120,2013-01-25 15:41:00
10:54 AM,12.9,10.0,88,30.22,0.5,East,4.6,-,0.00,Fog-Snow,Snow,100,2013-01-25 15:54:00
2:54 PM,15.1,10.0,80,30.08,1.8,ESE,4.6,-,0.00,Snow,Light Snow,120,2013-01-25 19:54:00
3:11 PM,15.8,10.4,79,30.01,2.5,ESE,4.6,-,0.00,Snow,Light Snow,120,2013-01-25 20:11:00
3:25 PM,15.8,10.4,79,30.01,3.0,ESE,4.6,-,0.00,Snow,Light Snow,120,2013-01-25 20:25:00
3:54 PM,16.0,10.0,77,30.06,4.0,Calm,Calm,-,0.00,Snow,Light Snow,0,2013-01-25 20:54:00
4:54 PM,16.0,10.0,77,30.06,7.0,Calm,Calm,-,0.00,,Overcast,0,2013-01-25 21:54:00
5:54 PM,16.0,10.9,81,30.06,5.0,South,3.5,-,0.00,Snow,Light Snow,170,2013-01-25 22:54:00
6:54 PM,16.0,10.9,81,30.07,5.0,Calm,Calm,-,0.00,Snow,Light Snow,0,2013-01-25 23:54:00
7:54 PM,16.0,12.0,84,30.07,9.0,Calm,Calm,-,0.00,,Overcast,0,2013-01-26 00:54:00
8:54 PM,16.0,12.0,84,30.07,7.0,Calm,Calm,-,N/A,,Overcast,0,2013-01-26 01:54:00
9:45 PM,17.6,12.2,79,30.03,4.0,WSW,3.5,-,0.00,Snow,Light Snow,240,2013-01-26 02:45:00
9:54 PM,17.1,12.9,84,30.09,4.0,SW,4.6,-,0.00,Snow,Light Snow,230,2013-01-26 02:54:00
10:08 PM,17.6,12.2,79,30.04,2.0,SW,4.6,-,0.00,Snow,Light Snow,220,2013-01-26 03:08:00
10:18 PM,17.6,12.2,79,30.05,1.8,SW,6.9,-,0.00,Snow,Light Snow,230,2013-01-26 03:18:00
10:54 PM,18.0,14.0,84,30.09,2.0,SW,5.8,-,0.00,Snow,Light Snow,220,2013-01-26 03:54:00
11:03 PM,17.6,14.0,86,30.04,3.0,SSW,5.8,-,0.00,Snow,Light Snow,210,2013-01-26 04:03:00
11:54 PM,18.0,15.1,88,30.10,4.0,SSW,5.8,-,0.00,Snow,Light Snow,200,2013-01-26 04:54:00